User: anonymous   Login
Location: Caltech
(34.1382°N, 118.1253°W)
Time: 00:43:20
(UTC-07:00)
Language:

NOSS 3-2 (A) - Orbit

View from above orbital plane
View from above orbital plane
View from above satellite
View from above satellite

Ground track
Ground track

The orbit data is extracted from the following two-line orbital elements,

1 28095U 03054A   14301.73171020 0.00000000  00000-0  00000-0 0    09
2 28095  63.4290 247.9059 0218000 358.2711   1.7289 13.41293184    07
Epoch (UTC): 28 October 2014 17:33:39
Eccentricity: 0.0218000
inclination: 63.4290°
perigee height: 941 km
apogee height: 1267 km
right ascension of ascending node: 247.9059°
argument of perigee: 358.2711°
revolutions per day: 13.41293184
mean anomaly at epoch: 1.7289°
orbit number at epoch: 0

The dashed part of the orbit path shows where the satellite is in the earth's shadow,  

DLR